Location: City of Clear Lake
(43.1347°N, 93.3740°W)
Time: 12:10:47
(UTC+00:00)

BlueWalker 3 - Pass Details

Date: 21 October 2024
Orbit: 470 x 482 km, 53.2° (Epoch: 05 November)

Event Time Altitude Azimuth Distance (km) Brightness Sun altitude
Exits shadow 11:54:38 10° 293° (WNW) 1,646 3.9 -8.1°
Reaches altitude 10° 11:54:40 10° 293° (WNW) 1,632 3.9 -8.1°
Maximum altitude 11:58:07 39° 224° (SW) 721 2.5 -7.5°
Drops below altitude 10° 12:01:33 10° 154° (SSE) 1,626 5.0 -6.8°
Sets 12:03:46 0° 147° (SSE) 2,501 6.2 -6.4°
